This demonstration page uses our WeatherBlox Daily Observations layout. Learn more.

Left ArrowRight Arrow

39.51506, -84.39828

Hourly Observations for October 15, 2021

Temp ( °F °C ) Dew Point ( °F °C ) Humidity (%) Winds ( mph kmh ) Pressure ( in mb ) Visibility ( mi km ) Precip ( " mm )
12:15 am 00:15 Hazy 64 18 N/A N/A N N/A 29.92 1013 5 8 N/A
12:35 am 00:35 Hazy 64 18 N/A N/A N N/A 29.92 1013 7 11 N/A
12:55 am 00:55 Clear 64 18 N/A N/A N N/A 29.91 1013 10 16 N/A
1:15 am 01:15 Clear 64 18 N/A N/A N N/A 29.90 1013 7 11 N/A
1:35 am 01:35 Partly Cloudy with Mist and Fog 64 18 N/A N/A N N/A 29.90 1013 4 6 N/A
1:55 am 01:55 Hazy 64 18 N/A N/A N N/A 29.90 1013 5 8 N/A
2:15 am 02:15 Hazy 64 18 N/A N/A N N/A 29.90 1013 5 8 N/A
2:35 am 02:35 Mostly Cloudy with Haze 64 18 N/A N/A N N/A 29.90 1013 5 8 N/A
2:55 am 02:55 Mostly Cloudy with Haze 64 18 N/A N/A N N/A 29.90 1013 5 8 N/A
3:15 am 03:15 Mostly Cloudy with Fog 64 18 N/A N/A N N/A 29.90 1013 1 1 N/A
3:35 am 03:35 Mostly Cloudy with Mist and Fog 64 18 N/A N/A N N/A 29.89 1012 2 3 N/A
3:55 am 03:55 Hazy 64 18 N/A N/A N N/A 29.89 1012 7 11 N/A
4:15 am 04:15 Hazy 64 18 N/A N/A N N/A 29.90 1013 7 11 N/A
4:35 am 04:35 Hazy 64 18 N/A N/A N N/A 29.89 1012 5 8 N/A
4:55 am 04:55 Hazy 64 18 N/A N/A N N/A 29.89 1012 4 6 N/A
5:15 am 05:15 Clear with Mist and Fog 64 18 N/A N/A N N/A 29.88 1012 3 4 N/A
5:35 am 05:35 Clear with Mist and Fog 64 18 N/A N/A N N/A 29.88 1012 4 6 N/A
5:55 am 05:55 Partly Cloudy with Mist and Fog 64 18 N/A N/A N N/A 29.88 1012 3 5 N/A
6:15 am 06:15 Partly Cloudy with Mist and Fog 64 18 N/A N/A N N/A 29.88 1012 3 4 N/A
6:35 am 06:35 Partly Cloudy with Fog 64 18 N/A N/A N N/A 29.88 1012 1 1 N/A
6:55 am 06:55 Partly Cloudy with Mist and Fog 64 18 N/A N/A NNW 3 6 29.88 1012 3 5 N/A
7:15 am 07:15 Hazy 64 18 N/A N/A N N/A 29.88 1012 5 8 N/A
7:35 am 07:35 Mostly Cloudy 64 18 N/A N/A SSW 5 7 29.88 1012 7 11 N/A
7:55 am 07:55 Partly Cloudy 66 19 N/A N/A SSW 5 7 29.87 1011 7 11 N/A
8:15 am 08:15 Hazy 64 18 N/A N/A SSW 3 6 29.87 1011 7 11 N/A
8:35 am 08:35 Sunny 68 20 N/A N/A SSW 6 9 29.86 1011 10 16 N/A
8:55 am 08:55 Sunny 69 20.8 69 20.4 98 98 S 7 11 29.86 1011 10 16 N/A
9:15 am 09:15 Sunny 71 21.6 69 20.4 93 93 SSW 6 9 29.86 1011 10 16 N/A
9:35 am 09:35 Partly Cloudy 72 22.4 69 20.5 89 89 SSW 10 17 29.87 1011 10 16 N/A
9:55 am 09:55 Cloudy 72 22.3 69 20.4 89 89 SSW 8 13 29.86 1011 10 16 N/A
10:15 am 10:15 Cloudy 73 22.7 69 20.4 87 87 SSW 10 17 29.87 1011 10 16 N/A
10:35 am 10:35 Cloudy 72 22.4 68 20.2 87 87 SSW 12 19 29.86 1011 10 16 N/A
10:55 am 10:55 Cloudy 72 22.4 68 20.2 87 87 S 10 17 29.86 1011 10 16 N/A
11:15 am 11:15 Cloudy 73 22.7 69 20.3 86 86 S 12 19 29.86 1011 10 16 N/A
11:35 am 11:35 Cloudy 73 22.7 68 20.1 85 85 S 12 19 29.86 1011 10 16 N/A
11:55 am 11:55 Cloudy with Light Rain 71 21.8 69 20.7 94 94 S 12 19 29.87 1012 7 11 N/A
12:15 pm 12:15 Cloudy 71 21.8 69 20.7 94 94 SSW 8 13 29.87 1012 10 16 N/A
12:35 pm 12:35 Cloudy 71 21.6 69 20.8 95 95 S 12 19 29.86 1011 10 16 N/A
12:55 pm 12:55 Cloudy with Light Rain 70 21.1 69 20.7 98 98 SSW 16 26 29.86 1011 7 11 N/A
1:15 pm 13:15 Cloudy 70 21.2 69 20.5 96 96 SSW 10 17 29.86 1011 10 16 N/A
1:35 pm 13:35 Cloudy 71 21.4 69 20.5 95 95 S 10 17 29.85 1011 10 16 N/A
1:55 pm 13:55 Cloudy 71 21.5 69 20.5 94 94 SSW 13 20 29.84 1011 10 16 N/A
2:15 pm 14:15 Cloudy 71 21.7 69 20.7 94 94 SSW 12 19 29.84 1011 10 16 N/A
2:35 pm 14:35 Cloudy 71 21.7 70 20.9 95 95 SSW 12 19 29.83 1010 10 16 N/A
2:55 pm 14:55 Cloudy 71 21.8 70 20.9 95 95 SSW 12 19 29.83 1010 10 16 N/A
3:15 pm 15:15 Cloudy 73 22.5 69 20.8 90 90 SSW 17 28 29.82 1010 10 16 N/A
3:35 pm 15:35 Cloudy 73 22.7 69 20.7 89 89 SSW 10 17 29.80 1009 10 16 N/A
3:55 pm 15:55 Mostly Cloudy 74 23.5 70 21.3 88 88 SSW 10 17 29.80 1009 10 16 N/A
4:15 pm 16:15 Cloudy 74 23.1 70 21 88 88 S 14 22 29.80 1009 10 16 N/A
4:35 pm 16:35 Cloudy 73 22.7 70 20.9 90 90 S 12 19 29.80 1009 10 16 N/A
4:55 pm 16:55 Cloudy 73 22.6 69 20.8 90 90 SSW 12 19 29.80 1009 10 16 N/A
5:15 pm 17:15 Cloudy 73 22.7 70 20.9 90 90 SSW 14 22 29.80 1009 10 16 N/A
5:35 pm 17:35 Cloudy 73 22.9 69 20.8 88 88 SSW 14 22 29.79 1009 10 16 N/A
5:55 pm 17:55 Cloudy 72 22.4 69 20.6 90 90 SSW 12 19 29.79 1009 10 16 N/A
6:15 pm 18:15 Cloudy 72 22.3 69 20.6 90 90 S 10 17 29.79 1009 10 16 N/A
6:35 pm 18:35 Mostly Cloudy 71 21.9 68 20.1 90 90 SW 8 13 29.79 1009 10 16 N/A
6:55 pm 18:55 Sunny 70 21.2 67 19.6 91 91 SW 10 17 29.79 1009 10 16 N/A
7:15 pm 19:15 Mostly Cloudy 70 21.1 67 19.2 89 89 WSW 8 13 29.79 1009 10 16 N/A
7:35 pm 19:35 Partly Cloudy 68 20.2 67 19.5 96 96 W 7 11 29.79 1009 10 16 N/A
7:55 pm 19:55 Partly Cloudy 67 19.6 67 19.6 100 100 WSW 8 13 29.81 1009 10 16 N/A
8:15 pm 20:15 Mostly Cloudy 68 20 68 20 100 100 W 5 7 29.80 1009 10 16 N/A
8:35 pm 20:35 Mostly Cloudy 68 20 68 20 100 100 N N/A 29.79 1009 10 16 N/A
8:55 pm 20:55 Mostly Cloudy 66 19 N/A N/A N N/A 29.81 1009 10 16 N/A
9:15 pm 21:15 Cloudy 68 20 N/A N/A NNW 6 9 29.79 1009 10 16 N/A
9:35 pm 21:35 Cloudy 67 19.7 66 19 96 96 NNW 5 7 29.80 1009 10 16 N/A
9:55 pm 21:55 Cloudy 67 19.7 66 18.9 95 95 NNW 6 9 29.81 1009 10 16 N/A
10:15 pm 22:15 Cloudy 67 19.4 65 18.4 94 94 NNE 8 13 29.79 1009 10 16 N/A
10:35 pm 22:35 Cloudy with Light Rain 65 18.6 65 18.3 98 98 N 8 13 29.78 1008 10 16 N/A
10:55 pm 22:55 Cloudy with Light Rain 65 18.1 64 18 99 99 NNE 7 11 29.79 1009 10 16 N/A
11:15 pm 23:15 Cloudy with Light Rain 64 18 N/A N/A NNE 8 13 29.79 1009 7 11 0.02 0.51
11:35 pm 23:35 Cloudy with Rain 63 17 N/A N/A NNW 13 20 29.80 1009 5 8 0.03 0.76
11:55 pm 23:55 Cloudy with Rain 61 16 N/A N/A NNW 8 13 29.81 1010 5 8 0.04 1.02

Powered by AerisWeather